Tracking 35274 objects as of 10-Sep-2026
HD Live streaming from Space Station
objects crossing your sky now

CZ-2D DEB

Track CZ-2D DEB now!
10-day predictions


NORAD ID: 47975
Int'l Code: 2019-063E
Launch date: September 25, 2019
Source: People's Republic of China (PRC)
Launch site: Jiuquan Satellite Launch Center, China (JSC)

Note: This is SATELLITE DEBRIS
Your satellite tracking list
Your tracking list is empty




NASA's NSSDC Master Catalog

Two Line Element Set (TLE):
1 47975U 19063E   26252.90534774  .00000255  00000-0  10067-3 0  9996
2 47975  98.4536 310.2459 0006244 251.6098 108.4410 14.36949911298554
Source of the keplerian elements: AFSPC